Home > Weather > Mendoza > Past weeks

Flag for Argentina Past Weather in Mendoza, Mendoza, Argentina — Yesterday and Last 2 Weeks

Now
52 °F

Clear.


Feels Like: 48 °F
Forecast: 36 / 51 °F
Wind: 10 mph from South

Location: Mendoza Aerodrome

Current Time: Jun 30, 2016 at 12:18:06 AM

Latest Report: Jun 29, 2016 at 11:00 PM


Visibility: 10 mi

Pressure: 30.04 "Hg (27.39 "Hg at 767m altitude)

Humidity: 62%

Dew Point: 39 °F

Location of MendozaLocation

Past Weather in Mendoza — Graph

°F

Mendoza Temperature Yesterday

Maximum temperature yesterday: 54 °F (at 3:00 PM)
Minimum temperature yesterday: 36 °F (at 7:00 AM)
Average temperature yesterday: 45 °F

High & Low Weather Summary for the Past Weeks

 TemperatureHumidityPressure
High63 °F (Jun 16, 4:00 PM)100% (Jun 15, 7:00 AM)30.39 "Hg (Jun 15, 7:00 AM)
Low36 °F (Jun 21, 8:00 AM)39% (Jun 17, 5:00 PM)29.86 "Hg (Jun 29, 3:00 PM)
Average47 °F75%30.19 "Hg
* Reported Jun 14 11:00 PM — Jun 29 11:00 PM, Mendoza, Weather by CustomWeather, © 2016

Note: Actual official high and low records may vary slightly from our data, if they occured in-between our weather recording intervals... More about our weather records

Advertising

Mendoza Weather History for the Previous 24 Hours

Scroll right to see more
 ConditionsComfort  
Time TempWeatherWind HumidityBarometerVisibility
11:00 PM
Wed, Jun 29
52 °FClear.10 mph62%30.04 "Hg10 mi
10:00 PM52 °FClear.8 mph72%30.01 "Hg10 mi
9:00 PM50 °FClear.3 mph76%29.98 "Hg10 mi
8:00 PM48 °FClear.2 mph82%29.92 "Hg10 mi
7:00 PM50 °FClear.3 mph82%29.89 "Hg10 mi
6:00 PM54 °FPassing clouds.3 mph72%29.86 "HgN/A
5:00 PM54 °FPassing clouds.3 mph72%29.86 "HgN/A
4:00 PM54 °FPassing clouds.3 mph67%29.86 "HgN/A
3:00 PM54 °FSunny.3 mph63%29.86 "Hg10 mi
2:00 PM52 °FPassing clouds.3 mph67%29.89 "HgN/A
1:00 PM48 °FClear.3 mph87%29.92 "Hg4 mi
12:00 PM45 °FFog.2 mph93%29.95 "Hg2 mi
11:00 AM39 °FDense fog.No wind100%29.95 "Hg0 mi
10:00 AM37 °FDense fog.2 mph100%N/A0 mi
9:00 AM37 °FClear.No wind100%29.92 "Hg2 mi
8:00 AM36 °FClear.No wind100%29.92 "Hg3 mi
7:00 AM36 °FClear.No wind100%29.92 "Hg10 mi
6:00 AM37 °FClear.No wind100%29.92 "Hg10 mi
5:00 AM39 °FClear.No wind93%29.92 "Hg10 mi
4:00 AM39 °FClear.No wind93%29.95 "Hg10 mi
3:00 AM41 °FClear.No wind93%29.98 "Hg10 mi
2:00 AM39 °FClear.No wind100%29.98 "Hg10 mi
1:00 AM41 °FClear.No wind87%30.01 "Hg10 mi
12:00 AM41 °FClear.2 mph93%30.01 "Hg10 mi
Weather by CustomWeather, © 2016

See weather overviewHow to use our weather pages